This is the latest recevied weather packets stored in our database for station/object SR9NLI. If no packets are shown the sender has not sent any weather packets the latest 1 day(s).
| Time | Temp. | Humidity | Pressure | Rain* | Wind** | Luminosity | Snow |
|---|---|---|---|---|---|---|---|
| 1778008955 | 18.89° C | 100% | 950 hPa | - | 1.34 m/s, 197° | - | - |
| 1778008894 | 18.89° C | 100% | 950 hPa | - | 1.79 m/s, 191° | - | - |
| 1778008832 | 18.89° C | 100% | 949.9 hPa | - | 1.79 m/s, 177° | - | - |
| 1778008709 | 18.89° C | 100% | 950 hPa | - | 1.79 m/s, 174° | - | - |
| 1778008585 | 18.89° C | 100% | 949.9 hPa | - | 1.34 m/s, 173° | - | - |
| 1778008524 | 18.89° C | 100% | 950.1 hPa | - | 1.34 m/s, 175° | - | - |
| 1778008462 | 18.89° C | 100% | 950.1 hPa | - | 1.34 m/s, 183° | - | - |
| 1778008339 | 18.89° C | 100% | 950 hPa | - | 1.34 m/s, 181° | - | - |
| 1778008215 | 18.89° C | 100% | 950 hPa | - | 1.34 m/s, 188° | - | - |
| 1778008155 | 18.33° C | 100% | 950 hPa | - | 0.89 m/s, 191° | - | - |
| 1778008092 | 18.33° C | 100% | 950.1 hPa | - | 0.89 m/s, 195° | - | - |
| 1778007968 | 18.33° C | 100% | 950 hPa | - | 0.45 m/s, 209° | - | - |
| 1778007835 | 18.33° C | 100% | 950.1 hPa | - | 0.89 m/s, 177° | - | - |
| 1778007775 | 18.89° C | 100% | 950.1 hPa | - | 0.89 m/s, 174° | - | - |
| 1778007712 | 18.89° C | 100% | 950.1 hPa | - | 0.89 m/s, 174° | - | - |
| 1778007589 | 18.33° C | 100% | 950 hPa | - | 0.45 m/s, 174° | - | - |
| 1778007466 | 18.89° C | 100% | 950 hPa | - | 0.45 m/s, 0° | - | - |
| 1778007405 | 18.89° C | 100% | 950 hPa | - | 0.89 m/s, 0° | - | - |
| 1778007343 | 18.89° C | 100% | 950 hPa | - | 0.89 m/s, 204° | - | - |
| 1778007219 | 18.33° C | 100% | 950 hPa | - | 0.89 m/s, 226° | - | - |
| 1778007096 | 18.33° C | 100% | 950 hPa | - | 0.89 m/s, 205° | - | - |
| 1778007036 | 18.89° C | 100% | 949.9 hPa | - | 0.89 m/s, 209° | - | - |
| 1778006974 | 18.89° C | 100% | 950 hPa | - | 0.89 m/s, 190° | - | - |
| 1778006851 | 18.89° C | 100% | 950 hPa | - | 0.45 m/s, 0° | - | - |
| 1778006728 | 18.89° C | 100% | 950 hPa | - | 0.89 m/s, 186° | - | - |
* Rain since midnight (hover to see other rain measurements)
** Current wind speed in m/s (hover to see current wind gust speed)